Home   Weather   Penzance   Past weeks
Flag for United Kingdom

Past Weather in Penzance, England, United Kingdom — Yesterday and Last 2 Weeks

Now
46 °F

Rain showers. Broken clouds.


Feels Like: 41 °F
Forecast: 50 / 45 °F
Wind: 12 mph from Southwest

Location: Culdrose

Current Time: Nov 13, 2019 at 10:44:28 am

Latest Report: Nov 13, 2019 at 9:50 am


Visibility: 5 mi

Pressure: 29.59 "Hg

Humidity: 76%

Dew Point: 39 °F

Location of PenzanceLocation

Past Weather in Penzance — Graph

°F

Penzance Temperature Yesterday

Maximum temperature yesterday: 48 °F (at 10:50 am)
Minimum temperature yesterday: 43 °F (at 1:50 am)
Average temperature yesterday: 46 °F

High & Low Weather Summary for the Past Weeks

 TemperatureHumidityPressure
High57 °F (Oct 31, 10:08 am)100% (Oct 29, 11:50 pm)30.07 "Hg (Oct 29, 11:50 pm)
Low36 °F (Nov 7, 10:50 pm)58% (Nov 12, 1:20 pm)28.91 "Hg (Nov 2, 5:50 am)
Average49 °F86%29.59 "Hg
* Reported Oct 29 9:20 am — Nov 13 9:19 am, Penzance. Weather by CustomWeather, © 2019

Note: Actual official high and low records may vary slightly from our data, if they occured in-between our weather recording intervals... More about our weather records

Advertising

Penzance Weather History for the Previous 24 Hours

Scroll right to see more
 ConditionsComfort  
Time TempWeatherWind HumidityBarometerVisibility
9:19 am
Wed, Nov 13
46 °FScattered showers. Partly sunny.5 mph82%29.59 "HgN/A
8:50 am45 °FScattered showers. Partly sunny.3 mph81%29.62 "HgN/A
8:21 am45 °FScattered showers. Scattered clouds.9 mph81%29.65 "HgN/A
7:50 am45 °FScattered showers. Scattered clouds.10 mph81%29.65 "HgN/A
7:16 am43 °FPassing clouds.9 mph81%29.68 "HgN/A
6:50 am43 °FPassing clouds.7 mph76%29.68 "HgN/A
6:26 am43 °FPassing clouds.9 mph81%29.68 "HgN/A
5:50 am41 °FPassing clouds.9 mph81%29.68 "HgN/A
4:50 am43 °FPassing clouds.10 mph81%29.71 "HgN/A
3:50 am43 °FPassing clouds.9 mph76%29.71 "HgN/A
2:50 am45 °FPassing clouds.13 mph76%29.71 "HgN/A
1:50 am43 °FPassing clouds.10 mph81%29.71 "HgN/A
12:50 am43 °FPassing clouds.8 mph81%29.71 "HgN/A
11:50 pm
Tue, Nov 12
45 °FPassing clouds.6 mph76%29.71 "HgN/A
11:15 pm45 °FPassing clouds.12 mph76%29.71 "HgN/A
10:50 pm45 °FPassing clouds.7 mph76%29.74 "HgN/A
10:26 pm45 °FPassing clouds.9 mph76%29.74 "HgN/A
9:50 pm43 °FPassing clouds.7 mph81%29.74 "HgN/A
9:26 pm45 °FSprinkles. Passing clouds.8 mph81%29.71 "HgN/A
8:50 pm46 °FPassing clouds.12 mph71%29.71 "HgN/A
8:19 pm46 °FPassing clouds.12 mph76%29.71 "HgN/A
7:50 pm46 °FPassing clouds.9 mph71%29.71 "HgN/A
7:24 pm48 °FPassing clouds.13 mph66%29.71 "HgN/A
6:50 pm46 °FPassing clouds.12 mph71%29.71 "HgN/A
6:26 pm46 °FPassing clouds.22 mph71%29.71 "HgN/A
5:50 pm46 °FPassing clouds.14 mph71%29.71 "HgN/A
5:26 pm46 °FPassing clouds.14 mph71%29.68 "HgN/A
4:50 pm46 °FPassing clouds.15 mph71%29.68 "HgN/A
4:20 pm46 °FPassing clouds.16 mph66%29.68 "HgN/A
3:50 pm46 °FPassing clouds.24 mph66%29.68 "HgN/A
3:18 pm48 °FPassing clouds.21 mph62%29.68 "HgN/A
2:50 pm48 °FPassing clouds.21 mph62%29.68 "HgN/A
2:22 pm48 °FScattered clouds.21 mph62%29.68 "HgN/A
1:50 pm48 °FScattered clouds.20 mph62%29.68 "HgN/A
1:20 pm48 °FScattered clouds.23 mph58%29.68 "HgN/A
12:50 pm48 °FScattered clouds.22 mph62%29.68 "HgN/A
12:20 pm48 °FScattered clouds.21 mph66%29.71 "HgN/A
11:50 am48 °FScattered clouds.26 mph62%29.71 "HgN/A
11:18 am48 °FScattered showers. Scattered clouds.22 mph66%29.71 "HgN/A
10:50 am48 °FScattered clouds.18 mph66%29.71 "HgN/A
Weather by CustomWeather, © 2019

See weather overview